    Orbital elements:
    2022 SF95                                           PHA, Earth MOID = 0.0078 AU
    Epoch 2023 Feb. 25.0 TT = JDT 2460000.5                 Veres                   
    M   9.19722              (2000.0)            P               Q                  
    n   0.31767173     Peri.  317.54850     -0.53291795     -0.84505520             
    a   2.1272425      Node   164.49269     +0.81336254     -0.52571476             
    e   0.5853260      Incl.    9.33354     +0.23332349     -0.09749720             
    P   3.10           H   20.51          G   0.15           U   0                  
    Residuals in seconds of arc
    191009 F51  0.1-  0.0     221030 F51  0.0   0.1+    230329 M22  0.1+  0.9+
    191009 F51  0.1+  0.0     221030 F51  0.1+  0.0     230329 M22  0.0   0.8-
    191029 G96  0.3-  0.7+    221112 F51  0.1+  0.0     230329 M22  0.3-  0.0
    191029 G96  0.5+  0.1-    221112 F51  0.2-  0.2-    230329 M22  0.6+  0.4-
    191029 G96  0.5-  0.4+    221112 F51  0.0   0.1-    230330 W68  0.1+  0.4-
    200126 F51  0.1-  0.1-    221119 F52  0.0   0.1+    230330 W68  0.1-  0.3-
    200126 F51  0.3-  0.1-    221119 F51  0.0   0.0     230330 W68  0.4+  0.1-
    200126 F51  0.2-  0.0     221119 F51  0.6+  0.2-    230330 W68  0.0   0.0
    200205 F51  0.1-  0.3+    221119 F52  0.0   0.1+    230401 M22  0.2-  0.8-
    200205 F51  0.2+  0.1-    221124 G96  0.3+  0.5+    230401 M22  0.0   0.8+
    200205 F51  0.1-  0.1-    221124 G96  0.9-  0.1+    230401 M22  0.1+  0.4+
    200420 F51  0.2+  0.0     221124 G96  0.5+  0.1-    230401 M22  0.3+  0.2-
    200420 F51  0.1-  0.1-    221124 G96  0.1-  0.3+    230401 703  0.1+  0.3+
    200420 F51  0.1+  0.1-    221125 691  0.1+  0.7-    230401 F52  0.1-  0.1-
    200423 F51  0.1+  0.2-    221125 691  0.0   0.3+    230401 F52  0.0   0.0
    200423 F51  0.1+  0.1+    221215 F51  0.0   0.1+    230401 F52  0.1+  0.1+
    200429 F52  0.2-  0.3+    221215 F51  0.1-  0.0     230401 F52  0.0   0.0
    200429 F52  0.3+  0.3-    221215 F51  0.0   0.0     230402 703  0.7+  0.7+
    200429 F52  0.1-  0.1-    221215 F51  0.0   0.0     230402 703  0.4+  0.7+
    200514 F52  0.1+  0.0     221215 F52  0.2-  0.6-    230402 703 (1.6+  1.1+)
    200514 F52  0.0   0.0     221215 F52  0.1-  0.1+    230403 G96  0.2-  0.1-
    200514 F52  0.2+  0.0     221229 807  0.0   0.3-    230403 G96  0.1+  0.1+
    200514 F52  0.1-  0.2-    221229 807  0.7-  0.2+    230403 G96  0.2+  0.1-
    200517 F51  0.1-  0.1+    221229 807 (1.4-  0.9-)   230403 G96  0.2+  0.1+
    200517 F51  0.2+  0.2-    230120 474  0.4-  0.0     230409 291  0.3-  0.2+
    200517 F51  0.0   0.3+    230120 474  0.4+  0.3+    230409 291  0.4-  0.2+
    200517 F51 (0.2-  0.6+)   230120 474  0.0   0.8-    230409 291  0.1-  0.2+
    200521 F51  0.1-  0.0     230226 I47  0.4-  0.2+    230410 291  0.1+  0.0
    200525 F52  0.4+  0.3+    230226 I47  0.8-  0.4-    230410 291  0.3-  0.1+
    200525 F52  0.1+  0.1-    230227 K74  0.7-  0.9+    230410 291  0.0   0.3+
    200525 F52  0.0   0.0     230227 K74  0.1-  0.4-    230415 F52  0.0   0.1+
    200528 F52  0.3-  0.1-    230315 W68  0.2+  0.5-    230415 F52  0.0   0.1+
    200528 F52  0.0   0.0     230315 W68  0.2+  0.7+    230415 F52  0.0   0.1+
    200528 F52  0.2+  0.1-    230315 W68  0.3-  0.4+    230416 G96  0.0   0.1+
    220916 F51 (0.6+  0.3-)   230315 W68  0.0   0.1+    230416 G96  0.1+  0.1+
    220916 F51  0.2+  0.3-    230316 K74  0.2+  0.1+    230416 G96  0.1-  0.0
    220916 F51  0.3+  0.0     230316 K74  0.4+  0.2-    230416 G96  0.2-  0.0
    220916 F51  0.0   0.4+    230316 K74  0.1+  0.1+    230417 703  0.0   0.1-
    220922 F51  0.1+  0.0     230317 T05  0.1+  0.1-    230417 703  0.2+  0.2+
    220922 F51  0.0   0.0     230317 T05  0.6+  0.1-    230417 703  0.2-  0.8-
    220922 F51  0.0   0.0     230317 T05  0.0   0.2+    230418 691  0.1+  0.3+
    220922 F51  0.1-  0.1+    230317 T05  0.0   0.3-    230418 691  0.2+  0.0
    220923 F51  0.0   0.0     230317 F52  0.0   0.0     230418 691  0.1+  0.1+
    220923 F51  0.1-  0.1+    230317 F52  0.0   0.0     230423 G96  0.1+  0.1-
    220923 F51  0.1-  0.0     230319 W68  0.1+  0.2-    230423 G96  0.0   0.2-
    221014 F51  0.2+  0.1+    230319 W68  0.5+  0.4+    230423 G96  0.0   0.2+
    221014 F51  0.1+  0.0     230319 W68  0.2-  0.3-    230425 691  0.2+  0.1+
    221014 F51  0.1-  0.1-    230319 W68  0.2+  0.2-    230425 691  0.3+  0.0
    221014 F51  0.0   0.0     230321 T05  0.3-  0.1-    230425 691  0.0   0.2+
    221014 F51  0.0   0.1-    230321 T05  0.5+  0.2+    230425 D29  0.1-  0.1-
    221015 807 (1.3-  0.6+)   230321 T05  0.0   0.1+    230425 D29  0.3+  0.3-
    221015 807 (1.0-  1.4+)   230321 T05  0.2+  0.0     230425 D29  0.2+  0.0
    221015 807  0.5-  0.1+    230321 T05  0.1+  0.0     230428 G96  0.1-  0.1+
    221016 807  0.6-  0.0     230321 F51  0.0   0.0     230428 G96  0.0   0.2-
    221016 H21  0.1-  1.0-    230322 M22  0.2+  0.5+    230428 G96  0.2+  0.1+
    221016 807  0.1-  0.1-    230322 M22  0.6-  0.4-    230428 G96  0.2+  0.1+
    221016 H21  0.1-  1.2-    230322 M22  0.1-  0.3-    230429 D29  0.3+  0.1+
    221016 807  0.7-  0.1-    230322 M22  0.1+  0.3+    230429 D29  0.3+  0.3+
    221016 H21  0.4-  0.9-    230326 703  0.5-  0.7-    230509 F52  0.1-  0.1+
    221016 H21  0.2-  1.2-    230326 703  0.8-  0.0     230509 691  0.0   0.1+
    221016 L01  0.1-  0.4-    230326 703  1.1-  0.2+    230509 691  0.1+  0.1-
    221016 L01  0.5-  0.1-    230326 703  0.0   1.0-    230509 691  0.1+  0.6-
    221016 L01  0.9-  0.2+    230327 W68  0.1-  0.0     230512 691  0.9-  0.1+
    221016 L01  0.3+  0.1+    230327 W68  0.1+  0.3-    230512 691  0.2-  0.3+
    221016 L01  0.3+  0.7-    230327 W68  0.7-  0.3+    230514 F51  0.0   0.0
    221018 F51  0.0   0.1+    230327 W68  0.2+  0.2+    230514 F51  0.0   0.1+
    221018 F51  0.0   0.0     230328 K87  0.5-  0.1+    230514 F51  0.2+  0.1-
    221018 F51  0.0   0.0     230328 K87  0.3-  0.2+    230522 F51 (0.5-  0.3+)
    221024 F51  0.0   0.0     230328 G96  0.0   0.0     230522 F51  0.0   0.0
    221024 F51  0.0   0.0     230328 G96  0.1-  0.1-    230522 F51  0.1-  0.0
    221024 F51  0.0   0.1+    230328 G96  0.1-  0.0     230525 F51  0.0   0.0
    221030 G96  0.1+  0.2+    230328 703  0.1-  0.1-    230525 F51 (0.7-  0.3-)
    221030 G96  0.1-  0.2+    230328 703  0.2-  0.5+    230525 F51  0.1+  0.1-
    221030 G96  0.0   0.0     230328 703  0.6-  0.3-    230608 695  0.1+  0.1+
    221030 G96  0.0   0.0     230328 703  0.4-  0.6-    230608 695  0.1-  0.1+
    221030 F51  0.0   0.0     230328 F51  0.0   0.0     230608 695  0.1+  0.1+
    221030 F51  0.3+  0.0     230328 F51  0.0   0.0
    
    Ephemeris:
    2022 SF95                a,e,i = 2.13, 0.59, 9                   q = 0.8821
    Date    TT    R. A. (2000) Decl.     Delta      r    Elong.  Phase     V
    2023 05 10    14 12 43.7 +08 58 51   0.5902  1.5510   150.6    18.6    21.3
    ...
    2023 05 25    14 06 24.3 +06 55 02   0.7688  1.6752   139.8    23.0    22.2
    ...
    2023 06 02    14 06 28.4 +05 34 32   0.8763  1.7400   133.9    24.8    22.6
    ...
    2023 06 08    14 07 48.2 +04 30 59   0.9618  1.7878   129.5    26.0    22.9
    2023 06 09    14 08 07.2 +04 20 13   0.9765  1.7956   128.7    26.2    22.9
    2023 06 10    14 08 27.7 +04 09 26   0.9913  1.8035   128.0    26.3    23.0
    ...
    2023 06 16    14 11 00.9 +03 04 05   1.0821  1.8503   123.7    27.2    23.2
    ...
    2023 06 24    14 15 38.4 +01 36 15   1.2087  1.9115   118.2    28.0    23.6
    ...
    2023 07 09    14 27 20.7 -01 06 18   1.4601  2.0225   108.1    28.5    24.1
    
    A. U. Tomatic                (C) Copyright 2023 MPC           M.P.E.C. 2023-L45
    


    Read MPEC 2023-L44 Read MPEC 2023-L46


    MPEC number:

    Enter an MPEC number in one of the following forms:

    • 1997-B01 (the full form)
    • J97B01 (the packed version of the full form)
    • B01 (the abbreviated form)